Hourly Weather Kizhake Chalakudi

Today, 27 July, Tuesday

Time Temperature Precipitation Wind Pressure Humidity
00:00 +24°C° 0 mm 0 mps 756 mmHg 96%
01:00 +23°C° 0 mm 0 mps 756 mmHg 96%
02:00 +23°C° 0 mm 0 mps 755 mmHg 96%
03:00 +23°C° 0.1 mm 0 mps 755 mmHg 96%
04:00 +23°C° 0.1 mm 0 mps 755 mmHg 97%
05:00 +23°C° 0.1 mm 0 mps 755 mmHg 97%
06:00 +24°C° 0.1 mm 0 mps 756 mmHg 93%
07:00 +25°C° 0.1 mm 0 mps 756 mmHg 90%
08:00 +26°C° 0.1 mm 0 mps 756 mmHg 87%
09:00 +29°C° 0.1 mm 1 mps 756 mmHg 81%
10:00 +30°C° 0.1 mm 1 mps 756 mmHg 74%
11:00 +31°C° 0.1 mm 2 mps 756 mmHg 68%
12:00 +31°C° 0.1 mm 2 mps 755 mmHg 68%
13:00 +31°C° 0.1 mm 3 mps 755 mmHg 67%
14:00 +31°C° 0.1 mm 3 mps 754 mmHg 67%
15:00 +30°C° 0.4 mm 3 mps 754 mmHg 72%
16:00 +29°C° 0.4 mm 2 mps 754 mmHg 77%
17:00 +29°C° 0.4 mm 2 mps 754 mmHg 82%
18:00 +28°C° 0.5 mm 2 mps 755 mmHg 86%
19:00 +27°C° 0.5 mm 1 mps 756 mmHg 90%
20:00 +26°C° 0.5 mm 1 mps 756 mmHg 93%
21:00 +26°C° 0.3 mm 1 mps 756 mmHg 94%
22:00 +26°C° 0.3 mm 1 mps 757 mmHg 94%
23:00 +25°C° 0.3 mm 1 mps 757 mmHg 94%

Tomorrow, 28 July, Wednesday

Time Temperature Precipitation Wind Pressure Humidity
00:00 +25°C° 0.1 mm 1 mps 756 mmHg 94%
01:00 +25°C° 0.1 mm 1 mps 756 mmHg 95%
02:00 +23°C° 0.1 mm 0 mps 755 mmHg 95%
03:00 +25°C° 0.1 mm 1 mps 755 mmHg 95%
04:00 +25°C° 0.1 mm 1 mps 755 mmHg 95%
05:00 +25°C° 0.1 mm 1 mps 755 mmHg 95%
06:00 +26°C° 0.2 mm 1 mps 756 mmHg 91%
07:00 +25°C° 0.2 mm 0 mps 756 mmHg 87%
08:00 +26°C° 0.2 mm 0 mps 757 mmHg 84%
09:00 +29°C° 0.2 mm 1 mps 757 mmHg 78%
10:00 +30°C° 0.2 mm 2 mps 757 mmHg 71%
11:00 +31°C° 0.2 mm 2 mps 756 mmHg 65%
12:00 +31°C° 0.2 mm 2 mps 756 mmHg 63%
13:00 +31°C° 0.2 mm 3 mps 756 mmHg 62%
14:00 +31°C° 0.2 mm 3 mps 755 mmHg 60%
15:00 +31°C° 0.3 mm 3 mps 755 mmHg 66%
16:00 +30°C° 0.3 mm 2 mps 755 mmHg 72%
17:00 +29°C° 0.3 mm 2 mps 755 mmHg 77%
18:00 +28°C° 0.3 mm 2 mps 756 mmHg 82%
19:00 +27°C° 0.3 mm 1 mps 756 mmHg 86%
20:00 +26°C° 0.3 mm 1 mps 757 mmHg 91%
21:00 +26°C° 0.2 mm 1 mps 757 mmHg 91%
22:00 +26°C° 0.2 mm 1 mps 757 mmHg 91%
23:00 +25°C° 0.2 mm 1 mps 757 mmHg 92%

Day after tomorrow, 29 July, Thursday

Time Temperature Precipitation Wind Pressure Humidity
00:00 +25°C° 0.2 mm 1 mps 757 mmHg 92%
01:00 +25°C° 0.2 mm 1 mps 756 mmHg 92%
02:00 +25°C° 0.2 mm 1 mps 756 mmHg 93%
03:00 +25°C° 0.1 mm 1 mps 756 mmHg 93%
04:00 +25°C° 0.1 mm 1 mps 756 mmHg 93%
05:00 +25°C° 0.1 mm 1 mps 756 mmHg 93%
06:00 +26°C° 0.1 mm 1 mps 756 mmHg 90%
07:00 +25°C° 0.1 mm 0 mps 757 mmHg 86%
08:00 +26°C° 0.1 mm 0 mps 757 mmHg 82%
09:00 +29°C° 0.3 mm 1 mps 757 mmHg 78%
10:00 +29°C° 0.3 mm 2 mps 757 mmHg 74%
11:00 +30°C° 0.3 mm 2 mps 757 mmHg 70%
12:00 +30°C° 0.2 mm 2 mps 757 mmHg 70%
13:00 +30°C° 0.2 mm 2 mps 756 mmHg 69%
14:00 +30°C° 0.2 mm 2 mps 756 mmHg 69%
15:00 +30°C° 0.3 mm 2 mps 756 mmHg 72%
16:00 +29°C° 0.3 mm 2 mps 756 mmHg 76%
17:00 +29°C° 0.3 mm 2 mps 756 mmHg 80%
18:00 +28°C° 0.2 mm 2 mps 756 mmHg 84%
19:00 +27°C° 0.2 mm 1 mps 757 mmHg 88%
20:00 +26°C° 0.2 mm 1 mps 757 mmHg 92%
21:00 +26°C° 0.1 mm 1 mps 757 mmHg 92%
22:00 +26°C° 0.1 mm 1 mps 757 mmHg 93%
23:00 +25°C° 0.1 mm 1 mps 757 mmHg 93%

30 July, Friday

Time Temperature Precipitation Wind Pressure Humidity
00:00 +25°C° 0.1 mm 1 mps 757 mmHg 93%
01:00 +25°C° 0.1 mm 1 mps 756 mmHg 93%
02:00 +25°C° 0.1 mm 1 mps 756 mmHg 93%
03:00 +25°C° 0.2 mm 1 mps 756 mmHg 93%
04:00 +25°C° 0.2 mm 1 mps 756 mmHg 94%
05:00 +25°C° 0.2 mm 1 mps 756 mmHg 94%
06:00 +26°C° 0.5 mm 1 mps 757 mmHg 90%
07:00 +27°C° 0.5 mm 1 mps 757 mmHg 86%
08:00 +28°C° 0.5 mm 2 mps 757 mmHg 82%
09:00 +29°C° 0.7 mm 2 mps 757 mmHg 79%
10:00 +30°C° 0.7 mm 3 mps 757 mmHg 76%
11:00 +30°C° 0.7 mm 3 mps 757 mmHg 72%
12:00 +30°C° 0.7 mm 3 mps 757 mmHg 73%
13:00 +30°C° 0.7 mm 3 mps 756 mmHg 73%
14:00 +30°C° 0.7 mm 4 mps 756 mmHg 73%
15:00 +30°C° 0.6 mm 3 mps 756 mmHg 77%
16:00 +29°C° 0.6 mm 3 mps 756 mmHg 81%
17:00 +28°C° 0.6 mm 3 mps 756 mmHg 86%
18:00 +27°C° 0.5 mm 2 mps 756 mmHg 88%
19:00 +26°C° 0.5 mm 2 mps 757 mmHg 91%
20:00 +26°C° 0.5 mm 1 mps 757 mmHg 94%
21:00 +26°C° 0.4 mm 1 mps 757 mmHg 94%
22:00 +26°C° 0.4 mm 1 mps 757 mmHg 94%
23:00 +25°C° 0.4 mm 1 mps 757 mmHg 94%

31 July, Saturday

Time Temperature Precipitation Wind Pressure Humidity
00:00 +25°C° 0.4 mm 1 mps 757 mmHg 94%
01:00 +25°C° 0.4 mm 1 mps 756 mmHg 94%
02:00 +25°C° 0.4 mm 1 mps 756 mmHg 94%
03:00 +25°C° 0.5 mm 1 mps 756 mmHg 93%
04:00 +25°C° 0.5 mm 1 mps 756 mmHg 93%
05:00 +25°C° 0.5 mm 1 mps 756 mmHg 92%
06:00 +26°C° 0.1 mm 1 mps 757 mmHg 88%
07:00 +27°C° 0.1 mm 1 mps 757 mmHg 84%
08:00 +28°C° 0.1 mm 1 mps 757 mmHg 80%
09:00 +29°C° 0.3 mm 2 mps 757 mmHg 75%
10:00 +30°C° 0.3 mm 3 mps 757 mmHg 69%
11:00 +31°C° 0.3 mm 3 mps 757 mmHg 63%
12:00 +32°C° 0.4 mm 4 mps 756 mmHg 63%
13:00 +32°C° 0.4 mm 4 mps 756 mmHg 63%
14:00 +32°C° 0.4 mm 4 mps 755 mmHg 63%
15:00 +30°C° 0.6 mm 3 mps 756 mmHg 69%
16:00 +30°C° 0.6 mm 3 mps 756 mmHg 75%
17:00 +29°C° 0.6 mm 3 mps 756 mmHg 81%
18:00 +28°C° 0.5 mm 2 mps 756 mmHg 85%
19:00 +27°C° 0.5 mm 2 mps 756 mmHg 89%
20:00 +26°C° 0.5 mm 1 mps 757 mmHg 93%
21:00 +26°C° 0.4 mm 1 mps 757 mmHg 93%
22:00 +25°C° 0.4 mm 1 mps 757 mmHg 94%
23:00 +25°C° 0.4 mm 1 mps 757 mmHg 94%

1 August, Sunday

Time Temperature Precipitation Wind Pressure Humidity
00:00 +25°C° 0.2 mm 1 mps 757 mmHg 94%
01:00 +25°C° 0.2 mm 1 mps 756 mmHg 94%
02:00 +25°C° 0.2 mm 1 mps 756 mmHg 94%
03:00 +25°C° 0.4 mm 1 mps 756 mmHg 94%
04:00 +25°C° 0.4 mm 1 mps 756 mmHg 94%
05:00 +25°C° 0.4 mm 1 mps 756 mmHg 94%
06:00 +26°C° 0.6 mm 1 mps 756 mmHg 91%
07:00 +27°C° 0.6 mm 2 mps 756 mmHg 87%
08:00 +28°C° 0.6 mm 2 mps 757 mmHg 84%
09:00 +29°C° 0.5 mm 2 mps 757 mmHg 80%
10:00 +30°C° 0.5 mm 3 mps 757 mmHg 75%
11:00 +30°C° 0.5 mm 3 mps 757 mmHg 71%
12:00 +32°C° 0.2 mm 4 mps 756 mmHg 68%
13:00 +32°C° 0.2 mm 4 mps 755 mmHg 65%
14:00 +32°C° 0.2 mm 4 mps 755 mmHg 63%
15:00 +31°C° 0.4 mm 3 mps 755 mmHg 68%
16:00 +30°C° 0.4 mm 3 mps 755 mmHg 73%
17:00 +29°C° 0.4 mm 3 mps 755 mmHg 78%
18:00 +28°C° 0.6 mm 2 mps 756 mmHg 82%
19:00 +27°C° 0.6 mm 2 mps 756 mmHg 87%
20:00 +26°C° 0.6 mm 2 mps 757 mmHg 91%
21:00 +26°C° 0.3 mm 1 mps 757 mmHg 92%
22:00 +26°C° 0.3 mm 1 mps 757 mmHg 93%
23:00 +25°C° 0.3 mm 1 mps 757 mmHg 93%
Show more